owner,sensor,date,latitude,longitude,sea_surface_height_above_sea_level,qcFlag 
COMPS,ioos:station:USF.COMPS:ANC:1,2009-08-04T19:00:00Z,28.1930,-82.7890,0.074,1111122 
COMPS,ioos:station:USF.COMPS:ANC:1,2009-08-04T19:06:00Z,28.1930,-82.7890,0.054,1111122 
COMPS,ioos:station:USF.COMPS:ANC:1,2009-08-04T19:12:00Z,28.1930,-82.7890,0.033,1111122 
COMPS,ioos:station:USF.COMPS:ANC:1,2009-08-04T19:18:00Z,28.1930,-82.7890,0.016,1111122 
COMPS,ioos:station:USF.COMPS:ANC:1,2009-08-04T19:24:00Z,28.1930,-82.7890,-0.004,1111122 
COMPS,ioos:station:USF.COMPS:ANC:1,2009-08-04T19:30:00Z,28.1930,-82.7890,-0.028,1111122 
COMPS,ioos:station:USF.COMPS:ANC:1,2009-08-04T19:36:00Z,28.1930,-82.7890,-0.054,1111122 
COMPS,ioos:station:USF.COMPS:ANC:1,2009-08-04T19:42:00Z,28.1930,-82.7890,-0.078,1111122 
COMPS,ioos:station:USF.COMPS:ANC:1,2009-08-04T19:48:00Z,28.1930,-82.7890,-0.099,1111122 
COMPS,ioos:station:USF.COMPS:ANC:1,2009-08-04T19:54:00Z,28.1930,-82.7890,-0.125,1111122 
COMPS,ioos:station:USF.COMPS:ANC:1,2009-08-04T20:00:00Z,28.1930,-82.7890,-0.154,1111122 
COMPS,ioos:station:USF.COMPS:ANC:1,2009-08-04T20:06:00Z,28.1930,-82.7890,-0.178,1111122 
COMPS,ioos:station:USF.COMPS:ANC:1,2009-08-04T20:12:00Z,28.1930,-82.7890,-0.198,1111122 
COMPS,ioos:station:USF.COMPS:ANC:1,2009-08-04T20:18:00Z,28.1930,-82.7890,-0.214,1111122 
COMPS,ioos:station:USF.COMPS:ANC:1,2009-08-04T20:24:00Z,28.1930,-82.7890,-0.23,1111122 
COMPS,ioos:station:USF.COMPS:ANC:1,2009-08-04T20:30:00Z,28.1930,-82.7890,-0.252,1111122 
COMPS,ioos:station:USF.COMPS:ANC:1,2009-08-04T20:36:00Z,28.1930,-82.7890,-0.271,1111122 
COMPS,ioos:station:USF.COMPS:ANC:1,2009-08-04T20:42:00Z,28.1930,-82.7890,-0.289,1111122 
COMPS,ioos:station:USF.COMPS:ANC:1,2009-08-04T20:48:00Z,28.1930,-82.7890,-0.306,1111122 
COMPS,ioos:station:USF.COMPS:ANC:1,2009-08-04T20:54:00Z,28.1930,-82.7890,-0.323,1111122 
COMPS,ioos:station:USF.COMPS:ANC:1,2009-08-04T21:00:00Z,28.1930,-82.7890,-0.342,1111122 
COMPS,ioos:station:USF.COMPS:ANC:1,2009-08-04T21:06:00Z,28.1930,-82.7890,-0.36,1111122 
COMPS,ioos:station:USF.COMPS:ANC:1,2009-08-04T21:12:00Z,28.1930,-82.7890,-0.376,1111122 
COMPS,ioos:station:USF.COMPS:ANC:1,2009-08-04T21:18:00Z,28.1930,-82.7890,-0.391,1111122 
COMPS,ioos:station:USF.COMPS:ANC:1,2009-08-04T21:24:00Z,28.1930,-82.7890,-0.406,1111122 
COMPS,ioos:station:USF.COMPS:ANC:1,2009-08-04T21:30:00Z,28.1930,-82.7890,-0.425,1111122 
COMPS,ioos:station:USF.COMPS:ANC:1,2009-08-04T21:36:00Z,28.1930,-82.7890,-0.441,1111122 
COMPS,ioos:station:USF.COMPS:ANC:1,2009-08-04T21:42:00Z,28.1930,-82.7890,-0.459,1111122 
COMPS,ioos:station:USF.COMPS:ANC:1,2009-08-04T21:48:00Z,28.1930,-82.7890,-0.476,1111122 
COMPS,ioos:station:USF.COMPS:ANC:1,2009-08-04T21:54:00Z,28.1930,-82.7890,-0.488,1111122 
COMPS,ioos:station:USF.COMPS:ANC:1,2009-08-04T22:00:00Z,28.1930,-82.7890,-0.504,1111122 
COMPS,ioos:station:USF.COMPS:ANC:1,2009-08-04T22:06:00Z,28.1930,-82.7890,-0.518,1111122 
COMPS,ioos:station:USF.COMPS:ANC:1,2009-08-04T22:12:00Z,28.1930,-82.7890,-0.529,1111122 
COMPS,ioos:station:USF.COMPS:ANC:1,2009-08-04T22:18:00Z,28.1930,-82.7890,-0.538,1111122 
COMPS,ioos:station:USF.COMPS:ANC:1,2009-08-04T22:24:00Z,28.1930,-82.7890,-0.549,1111122 
COMPS,ioos:station:USF.COMPS:ANC:1,2009-08-04T22:30:00Z,28.1930,-82.7890,-0.566,1111122 
COMPS,ioos:station:USF.COMPS:ANC:1,2009-08-04T22:36:00Z,28.1930,-82.7890,-0.571,1111122 
COMPS,ioos:station:USF.COMPS:ANC:1,2009-08-04T22:42:00Z,28.1930,-82.7890,-0.576,1111122 
COMPS,ioos:station:USF.COMPS:ANC:1,2009-08-04T22:48:00Z,28.1930,-82.7890,-0.577,1111122 
COMPS,ioos:station:USF.COMPS:ANC:1,2009-08-04T22:54:00Z,28.1930,-82.7890,-0.576,1111122 
COMPS,ioos:station:USF.COMPS:ANC:1,2009-08-05T10:00:00Z,28.1930,-82.7890,-0.147,1111122 
COMPS,ioos:station:USF.COMPS:ANC:1,2009-08-05T10:06:00Z,28.1930,-82.7890,-0.159,1111122 
COMPS,ioos:station:USF.COMPS:ANC:1,2009-08-05T10:12:00Z,28.1930,-82.7890,-0.165,1111122 
COMPS,ioos:station:USF.COMPS:ANC:1,2009-08-05T10:18:00Z,28.1930,-82.7890,-0.164,1111122 
COMPS,ioos:station:USF.COMPS:ANC:1,2009-08-05T10:24:00Z,28.1930,-82.7890,-0.166,1111122 
COMPS,ioos:station:USF.COMPS:ANC:1,2009-08-05T10:30:00Z,28.1930,-82.7890,-0.168,1111122 
COMPS,ioos:station:USF.COMPS:ANC:1,2009-08-05T10:36:00Z,28.1930,-82.7890,-0.16,1111122 
COMPS,ioos:station:USF.COMPS:ANC:1,2009-08-05T10:42:00Z,28.1930,-82.7890,-0.157,1111122 
COMPS,ioos:station:USF.COMPS:ANC:1,2009-08-05T10:48:00Z,28.1930,-82.7890,-0.152,1111122 
COMPS,ioos:station:USF.COMPS:ANC:1,2009-08-05T10:54:00Z,28.1930,-82.7890,-0.148,1111122 
COMPS,ioos:station:USF.COMPS:ANC:1,2009-08-05T11:00:00Z,28.1930,-82.7890,-0.144,1111122 
COMPS,ioos:station:USF.COMPS:ANC:1,2009-08-05T11:06:00Z,28.1930,-82.7890,-0.129,1111122 
COMPS,ioos:station:USF.COMPS:ANC:1,2009-08-05T11:12:00Z,28.1930,-82.7890,-0.119,1111122 
COMPS,ioos:station:USF.COMPS:ANC:1,2009-08-05T11:18:00Z,28.1930,-82.7890,-0.107,1111122 
COMPS,ioos:station:USF.COMPS:ANC:1,2009-08-05T11:24:00Z,28.1930,-82.7890,-0.096,1111122 
COMPS,ioos:station:USF.COMPS:ANC:1,2009-08-05T11:30:00Z,28.1930,-82.7890,-0.091,1111122 
COMPS,ioos:station:USF.COMPS:ANC:1,2009-08-05T11:36:00Z,28.1930,-82.7890,-0.081,1111122 
COMPS,ioos:station:USF.COMPS:ANC:1,2009-08-05T11:42:00Z,28.1930,-82.7890,-0.069,1111122 
COMPS,ioos:station:USF.COMPS:ANC:1,2009-08-05T11:48:00Z,28.1930,-82.7890,-0.049,1111122 
COMPS,ioos:station:USF.COMPS:ANC:1,2009-08-05T11:54:00Z,28.1930,-82.7890,-0.035,1111122 
COMPS,ioos:station:USF.COMPS:ANC:1,2009-08-06T04:00:00Z,28.1930,-82.7890,0.155,1111122 
COMPS,ioos:station:USF.COMPS:ANC:1,2009-08-06T04:06:00Z,28.1930,-82.7890,0.172,1111122 
COMPS,ioos:station:USF.COMPS:ANC:1,2009-08-06T04:12:00Z,28.1930,-82.7890,0.206,1111122 
COMPS,ioos:station:USF.COMPS:ANC:1,2009-08-06T04:18:00Z,28.1930,-82.7890,0.223,1111122 
COMPS,ioos:station:USF.COMPS:ANC:1,2009-08-06T04:24:00Z,28.1930,-82.7890,0.217,1111122 
COMPS,ioos:station:USF.COMPS:ANC:1,2009-08-06T04:30:00Z,28.1930,-82.7890,0.21,1111122 
COMPS,ioos:station:USF.COMPS:ANC:1,2009-08-06T04:36:00Z,28.1930,-82.7890,0.202,1111122 
COMPS,ioos:station:USF.COMPS:ANC:1,2009-08-06T04:42:00Z,28.1930,-82.7890,0.2,1111122 
COMPS,ioos:station:USF.COMPS:ANC:1,2009-08-06T04:48:00Z,28.1930,-82.7890,0.213,1111122 
COMPS,ioos:station:USF.COMPS:ANC:1,2009-08-06T04:54:00Z,28.1930,-82.7890,0.226,1111122 
COMPS,ioos:station:USF.COMPS:ANC:1,2009-08-08T19:00:00Z,28.1930,-82.7890,0.477,1111122 
COMPS,ioos:station:USF.COMPS:ANC:1,2009-08-08T19:06:00Z,28.1930,-82.7890,0.464,1111122 
COMPS,ioos:station:USF.COMPS:ANC:1,2009-08-08T19:12:00Z,28.1930,-82.7890,0.458,1111122 
COMPS,ioos:station:USF.COMPS:ANC:1,2009-08-08T19:18:00Z,28.1930,-82.7890,0.444,1111122 
COMPS,ioos:station:USF.COMPS:ANC:1,2009-08-08T19:24:00Z,28.1930,-82.7890,0.435,1111122 
COMPS,ioos:station:USF.COMPS:ANC:1,2009-08-08T19:30:00Z,28.1930,-82.7890,0.425,1111122 
COMPS,ioos:station:USF.COMPS:ANC:1,2009-08-08T19:36:00Z,28.1930,-82.7890,0.413,1111122 
COMPS,ioos:station:USF.COMPS:ANC:1,2009-08-08T19:42:00Z,28.1930,-82.7890,0.396,1111122 
COMPS,ioos:station:USF.COMPS:ANC:1,2009-08-08T19:48:00Z,28.1930,-82.7890,0.376,1111122 
COMPS,ioos:station:USF.COMPS:ANC:1,2009-08-08T19:54:00Z,28.1930,-82.7890,0.359,1111122 
COMPS,ioos:station:USF.COMPS:ANC:1,2009-08-08T21:00:00Z,28.1930,-82.7890,0.158,1111122 
COMPS,ioos:station:USF.COMPS:ANC:1,2009-08-08T21:06:00Z,28.1930,-82.7890,0.139,1111122 
COMPS,ioos:station:USF.COMPS:ANC:1,2009-08-08T21:12:00Z,28.1930,-82.7890,0.121,1111122 
COMPS,ioos:station:USF.COMPS:ANC:1,2009-08-08T21:18:00Z,28.1930,-82.7890,0.1,1111122 
COMPS,ioos:station:USF.COMPS:ANC:1,2009-08-08T21:24:00Z,28.1930,-82.7890,0.081,1111122 
COMPS,ioos:station:USF.COMPS:ANC:1,2009-08-08T21:30:00Z,28.1930,-82.7890,0.062,1111122 
COMPS,ioos:station:USF.COMPS:ANC:1,2009-08-08T21:36:00Z,28.1930,-82.7890,0.039,1111122 
COMPS,ioos:station:USF.COMPS:ANC:1,2009-08-08T21:42:00Z,28.1930,-82.7890,0.018,1111122 
COMPS,ioos:station:USF.COMPS:ANC:1,2009-08-08T21:48:00Z,28.1930,-82.7890,-0.002,1111122 
COMPS,ioos:station:USF.COMPS:ANC:1,2009-08-08T21:54:00Z,28.1930,-82.7890,-0.023,1111122 
COMPS,ioos:station:USF.COMPS:ANC:1,2009-08-08T22:00:00Z,28.1930,-82.7890,-0.046,1111122 
COMPS,ioos:station:USF.COMPS:ANC:1,2009-08-08T22:06:00Z,28.1930,-82.7890,-0.068,1111122 
COMPS,ioos:station:USF.COMPS:ANC:1,2009-08-08T22:12:00Z,28.1930,-82.7890,-0.092,1111122 
COMPS,ioos:station:USF.COMPS:ANC:1,2009-08-08T22:18:00Z,28.1930,-82.7890,-0.122,1111122 
COMPS,ioos:station:USF.COMPS:ANC:1,2009-08-08T22:24:00Z,28.1930,-82.7890,-0.152,1111122 
COMPS,ioos:station:USF.COMPS:ANC:1,2009-08-08T22:30:00Z,28.1930,-82.7890,-0.18,1111122 
COMPS,ioos:station:USF.COMPS:ANC:1,2009-08-08T22:36:00Z,28.1930,-82.7890,-0.201,1111122 
COMPS,ioos:station:USF.COMPS:ANC:1,2009-08-08T22:42:00Z,28.1930,-82.7890,-0.222,1111122 
COMPS,ioos:station:USF.COMPS:ANC:1,2009-08-08T22:48:00Z,28.1930,-82.7890,-0.247,1111122 
COMPS,ioos:station:USF.COMPS:ANC:1,2009-08-08T22:54:00Z,28.1930,-82.7890,-0.265,1111122 
COMPS,ioos:station:USF.COMPS:ANC:1,2009-08-08T23:00:00Z,28.1930,-82.7890,-0.278,1111122 
COMPS,ioos:station:USF.COMPS:ANC:1,2009-08-08T23:06:00Z,28.1930,-82.7890,-0.291,1111122 
COMPS,ioos:station:USF.COMPS:ANC:1,2009-08-08T23:12:00Z,28.1930,-82.7890,-0.313,1111122 
COMPS,ioos:station:USF.COMPS:ANC:1,2009-08-08T23:18:00Z,28.1930,-82.7890,-0.334,1111122 
COMPS,ioos:station:USF.COMPS:ANC:1,2009-08-08T23:24:00Z,28.1930,-82.7890,-0.351,1111122 
COMPS,ioos:station:USF.COMPS:ANC:1,2009-08-08T23:30:00Z,28.1930,-82.7890,-0.367,1111122 
COMPS,ioos:station:USF.COMPS:ANC:1,2009-08-08T23:36:00Z,28.1930,-82.7890,-0.387,1111122 
COMPS,ioos:station:USF.COMPS:ANC:1,2009-08-08T23:42:00Z,28.1930,-82.7890,-0.407,1111122 
COMPS,ioos:station:USF.COMPS:ANC:1,2009-08-08T23:48:00Z,28.1930,-82.7890,-0.42,1111122 
COMPS,ioos:station:USF.COMPS:ANC:1,2009-08-08T23:54:00Z,28.1930,-82.7890,-0.429,1111122 
COMPS,ioos:station:USF.COMPS:ANC:1,2009-08-09T00:00:00Z,28.1930,-82.7890,-0.43,1111122 
COMPS,ioos:station:USF.COMPS:ANC:1,2009-08-09T00:06:00Z,28.1930,-82.7890,-0.428,1111122 
COMPS,ioos:station:USF.COMPS:ANC:1,2009-08-09T00:12:00Z,28.1930,-82.7890,-0.424,1111122 
COMPS,ioos:station:USF.COMPS:ANC:1,2009-08-09T00:18:00Z,28.1930,-82.7890,-0.427,1111122 
COMPS,ioos:station:USF.COMPS:ANC:1,2009-08-09T00:24:00Z,28.1930,-82.7890,-0.428,1111122 
COMPS,ioos:station:USF.COMPS:ANC:1,2009-08-09T00:30:00Z,28.1930,-82.7890,-0.433,1111122 
COMPS,ioos:station:USF.COMPS:ANC:1,2009-08-09T00:36:00Z,28.1930,-82.7890,-0.432,1111122 
COMPS,ioos:station:USF.COMPS:ANC:1,2009-08-09T00:42:00Z,28.1930,-82.7890,-0.431,1111122 
COMPS,ioos:station:USF.COMPS:ANC:1,2009-08-09T00:48:00Z,28.1930,-82.7890,-0.433,1111122 
COMPS,ioos:station:USF.COMPS:ANC:1,2009-08-09T00:54:00Z,28.1930,-82.7890,-0.437,1111122 
COMPS,ioos:station:USF.COMPS:ANC:1,2009-08-09T01:00:00Z,28.1930,-82.7890,-0.443,1111122 
COMPS,ioos:station:USF.COMPS:ANC:1,2009-08-09T01:06:00Z,28.1930,-82.7890,-0.444,1111122 
COMPS,ioos:station:USF.COMPS:ANC:1,2009-08-09T01:12:00Z,28.1930,-82.7890,-0.439,1111122 
COMPS,ioos:station:USF.COMPS:ANC:1,2009-08-09T01:18:00Z,28.1930,-82.7890,-0.423,1111122 
COMPS,ioos:station:USF.COMPS:ANC:1,2009-08-09T01:24:00Z,28.1930,-82.7890,-0.403,1111122 
COMPS,ioos:station:USF.COMPS:ANC:1,2009-08-09T01:30:00Z,28.1930,-82.7890,-0.384,1111122 
COMPS,ioos:station:USF.COMPS:ANC:1,2009-08-09T01:36:00Z,28.1930,-82.7890,-0.368,1111122 
COMPS,ioos:station:USF.COMPS:ANC:1,2009-08-09T01:42:00Z,28.1930,-82.7890,-0.353,1111122 
COMPS,ioos:station:USF.COMPS:ANC:1,2009-08-09T01:48:00Z,28.1930,-82.7890,-0.342,1111122 
COMPS,ioos:station:USF.COMPS:ANC:1,2009-08-09T01:54:00Z,28.1930,-82.7890,-0.334,1111122 
COMPS,ioos:station:USF.COMPS:ANC:1,2009-08-09T02:00:00Z,28.1930,-82.7890,-0.325,1111122 
COMPS,ioos:station:USF.COMPS:ANC:1,2009-08-09T02:06:00Z,28.1930,-82.7890,-0.308,1111122 
COMPS,ioos:station:USF.COMPS:ANC:1,2009-08-09T02:12:00Z,28.1930,-82.7890,-0.288,1111122 
COMPS,ioos:station:USF.COMPS:ANC:1,2009-08-09T02:18:00Z,28.1930,-82.7890,-0.273,1111122 
COMPS,ioos:station:USF.COMPS:ANC:1,2009-08-09T02:24:00Z,28.1930,-82.7890,-0.258,1111122 
COMPS,ioos:station:USF.COMPS:ANC:1,2009-08-09T02:30:00Z,28.1930,-82.7890,-0.239,1111122 
COMPS,ioos:station:USF.COMPS:ANC:1,2009-08-09T02:36:00Z,28.1930,-82.7890,-0.226,1111122 
COMPS,ioos:station:USF.COMPS:ANC:1,2009-08-09T02:42:00Z,28.1930,-82.7890,-0.213,1111122 
COMPS,ioos:station:USF.COMPS:ANC:1,2009-08-09T02:48:00Z,28.1930,-82.7890,-0.202,1111122 
COMPS,ioos:station:USF.COMPS:ANC:1,2009-08-09T02:54:00Z,28.1930,-82.7890,-0.186,1111122 
COMPS,ioos:station:USF.COMPS:ANC:1,2009-08-09T03:00:00Z,28.1930,-82.7890,-0.165,1111122 
COMPS,ioos:station:USF.COMPS:ANC:1,2009-08-09T03:06:00Z,28.1930,-82.7890,-0.143,1111122 
COMPS,ioos:station:USF.COMPS:ANC:1,2009-08-09T03:12:00Z,28.1930,-82.7890,-0.123,1111122 
COMPS,ioos:station:USF.COMPS:ANC:1,2009-08-09T03:18:00Z,28.1930,-82.7890,-0.105,1111122 
COMPS,ioos:station:USF.COMPS:ANC:1,2009-08-09T03:24:00Z,28.1930,-82.7890,-0.088,1111122 
COMPS,ioos:station:USF.COMPS:ANC:1,2009-08-09T03:30:00Z,28.1930,-82.7890,-0.072,1111122 
COMPS,ioos:station:USF.COMPS:ANC:1,2009-08-09T03:36:00Z,28.1930,-82.7890,-0.052,1111122 
COMPS,ioos:station:USF.COMPS:ANC:1,2009-08-09T03:42:00Z,28.1930,-82.7890,-0.029,1111122 
COMPS,ioos:station:USF.COMPS:ANC:1,2009-08-09T03:48:00Z,28.1930,-82.7890,-0.01,1111122 
COMPS,ioos:station:USF.COMPS:ANC:1,2009-08-09T03:54:00Z,28.1930,-82.7890,0.008,1111122 
COMPS,ioos:station:USF.COMPS:ANC:1,2009-08-09T05:00:00Z,28.1930,-82.7890,0.192,1111122 
COMPS,ioos:station:USF.COMPS:ANC:1,2009-08-09T05:06:00Z,28.1930,-82.7890,0.204,1111122 
COMPS,ioos:station:USF.COMPS:ANC:1,2009-08-09T05:12:00Z,28.1930,-82.7890,0.217,1111122 
COMPS,ioos:station:USF.COMPS:ANC:1,2009-08-09T05:18:00Z,28.1930,-82.7890,0.226,1111122 
COMPS,ioos:station:USF.COMPS:ANC:1,2009-08-09T05:24:00Z,28.1930,-82.7890,0.234,1111122 
COMPS,ioos:station:USF.COMPS:ANC:1,2009-08-09T05:30:00Z,28.1930,-82.7890,0.239,1111122 
COMPS,ioos:station:USF.COMPS:ANC:1,2009-08-09T05:36:00Z,28.1930,-82.7890,0.244,1111122 
COMPS,ioos:station:USF.COMPS:ANC:1,2009-08-09T05:42:00Z,28.1930,-82.7890,0.253,1111122 
COMPS,ioos:station:USF.COMPS:ANC:1,2009-08-09T05:48:00Z,28.1930,-82.7890,0.264,1111122 
COMPS,ioos:station:USF.COMPS:ANC:1,2009-08-09T05:54:00Z,28.1930,-82.7890,0.268,1111122 
COMPS,ioos:station:USF.COMPS:ANC:1,2009-08-09T06:00:00Z,28.1930,-82.7890,0.271,1111122 
COMPS,ioos:station:USF.COMPS:ANC:1,2009-08-09T06:06:00Z,28.1930,-82.7890,0.283,1111122 
COMPS,ioos:station:USF.COMPS:ANC:1,2009-08-09T06:12:00Z,28.1930,-82.7890,0.288,1111122 
COMPS,ioos:station:USF.COMPS:ANC:1,2009-08-09T06:18:00Z,28.1930,-82.7890,0.282,1111122 
COMPS,ioos:station:USF.COMPS:ANC:1,2009-08-09T06:24:00Z,28.1930,-82.7890,0.279,1111122 
COMPS,ioos:station:USF.COMPS:ANC:1,2009-08-09T06:30:00Z,28.1930,-82.7890,0.279,1111122 
COMPS,ioos:station:USF.COMPS:ANC:1,2009-08-09T06:36:00Z,28.1930,-82.7890,0.276,1111122 
COMPS,ioos:station:USF.COMPS:ANC:1,2009-08-09T06:42:00Z,28.1930,-82.7890,0.284,1111122 
COMPS,ioos:station:USF.COMPS:ANC:1,2009-08-09T06:48:00Z,28.1930,-82.7890,0.293,1111122 
COMPS,ioos:station:USF.COMPS:ANC:1,2009-08-09T06:54:00Z,28.1930,-82.7890,0.29,1111122 
COMPS,ioos:station:USF.COMPS:ANC:1,2009-08-09T07:00:00Z,28.1930,-82.7890,0.291,1111122 
COMPS,ioos:station:USF.COMPS:ANC:1,2009-08-09T07:06:00Z,28.1930,-82.7890,0.298,1111122 
COMPS,ioos:station:USF.COMPS:ANC:1,2009-08-09T07:12:00Z,28.1930,-82.7890,0.296,1111122 
COMPS,ioos:station:USF.COMPS:ANC:1,2009-08-09T07:18:00Z,28.1930,-82.7890,0.292,1111122 
COMPS,ioos:station:USF.COMPS:ANC:1,2009-08-09T07:24:00Z,28.1930,-82.7890,0.289,1111122 
COMPS,ioos:station:USF.COMPS:ANC:1,2009-08-09T07:30:00Z,28.1930,-82.7890,0.279,1111122 
COMPS,ioos:station:USF.COMPS:ANC:1,2009-08-09T07:36:00Z,28.1930,-82.7890,0.263,1111122 
COMPS,ioos:station:USF.COMPS:ANC:1,2009-08-09T07:42:00Z,28.1930,-82.7890,0.252,1111122 
COMPS,ioos:station:USF.COMPS:ANC:1,2009-08-09T07:48:00Z,28.1930,-82.7890,0.236,1111122 
COMPS,ioos:station:USF.COMPS:ANC:1,2009-08-09T07:54:00Z,28.1930,-82.7890,0.222,1111122 
COMPS,ioos:station:USF.COMPS:ANC:1,2009-08-09T08:00:00Z,28.1930,-82.7890,0.213,1111122 
COMPS,ioos:station:USF.COMPS:ANC:1,2009-08-09T08:06:00Z,28.1930,-82.7890,0.2,1111122 
COMPS,ioos:station:USF.COMPS:ANC:1,2009-08-09T08:12:00Z,28.1930,-82.7890,0.196,1111122 
COMPS,ioos:station:USF.COMPS:ANC:1,2009-08-09T08:18:00Z,28.1930,-82.7890,0.19,1111122 
COMPS,ioos:station:USF.COMPS:ANC:1,2009-08-09T08:24:00Z,28.1930,-82.7890,0.177,1111122 
COMPS,ioos:station:USF.COMPS:ANC:1,2009-08-09T08:30:00Z,28.1930,-82.7890,0.161,1111122 
COMPS,ioos:station:USF.COMPS:ANC:1,2009-08-09T08:36:00Z,28.1930,-82.7890,0.15,1111122 
COMPS,ioos:station:USF.COMPS:ANC:1,2009-08-09T08:42:00Z,28.1930,-82.7890,0.137,1111122 
COMPS,ioos:station:USF.COMPS:ANC:1,2009-08-09T08:48:00Z,28.1930,-82.7890,0.116,1111122 
COMPS,ioos:station:USF.COMPS:ANC:1,2009-08-09T08:54:00Z,28.1930,-82.7890,0.093,1111122 
COMPS,ioos:station:USF.COMPS:ANC:1,2009-08-09T09:00:00Z,28.1930,-82.7890,0.073,1111122 
COMPS,ioos:station:USF.COMPS:ANC:1,2009-08-09T09:06:00Z,28.1930,-82.7890,0.05,1111122 
COMPS,ioos:station:USF.COMPS:ANC:1,2009-08-09T09:12:00Z,28.1930,-82.7890,0.028,1111122 
COMPS,ioos:station:USF.COMPS:ANC:1,2009-08-09T09:18:00Z,28.1930,-82.7890,0.014,1111122 
COMPS,ioos:station:USF.COMPS:ANC:1,2009-08-09T09:24:00Z,28.1930,-82.7890,-0.004,1111122 
COMPS,ioos:station:USF.COMPS:ANC:1,2009-08-09T09:30:00Z,28.1930,-82.7890,-0.024,1111122 
COMPS,ioos:station:USF.COMPS:ANC:1,2009-08-09T09:36:00Z,28.1930,-82.7890,-0.037,1111122 
COMPS,ioos:station:USF.COMPS:ANC:1,2009-08-09T09:42:00Z,28.1930,-82.7890,-0.042,1111122 
COMPS,ioos:station:USF.COMPS:ANC:1,2009-08-09T09:48:00Z,28.1930,-82.7890,-0.054,1111122 
COMPS,ioos:station:USF.COMPS:ANC:1,2009-08-09T09:54:00Z,28.1930,-82.7890,-0.071,1111122 
COMPS,ioos:station:USF.COMPS:ANC:1,2009-08-09T10:00:00Z,28.1930,-82.7890,-0.085,1111122 
COMPS,ioos:station:USF.COMPS:ANC:1,2009-08-09T10:06:00Z,28.1930,-82.7890,-0.096,1111122 
COMPS,ioos:station:USF.COMPS:ANC:1,2009-08-09T10:12:00Z,28.1930,-82.7890,-0.105,1111122 
COMPS,ioos:station:USF.COMPS:ANC:1,2009-08-09T10:18:00Z,28.1930,-82.7890,-0.123,1111122 
COMPS,ioos:station:USF.COMPS:ANC:1,2009-08-09T10:24:00Z,28.1930,-82.7890,-0.143,1111122 
COMPS,ioos:station:USF.COMPS:ANC:1,2009-08-09T10:30:00Z,28.1930,-82.7890,-0.162,1111122 
COMPS,ioos:station:USF.COMPS:ANC:1,2009-08-09T10:36:00Z,28.1930,-82.7890,-0.18,1111122 
COMPS,ioos:station:USF.COMPS:ANC:1,2009-08-09T10:42:00Z,28.1930,-82.7890,-0.194,1111122 
COMPS,ioos:station:USF.COMPS:ANC:1,2009-08-09T10:48:00Z,28.1930,-82.7890,-0.202,1111122 
COMPS,ioos:station:USF.COMPS:ANC:1,2009-08-09T10:54:00Z,28.1930,-82.7890,-0.207,1111122 
COMPS,ioos:station:USF.COMPS:ANC:1,2009-08-09T11:00:00Z,28.1930,-82.7890,-0.212,1111122 
COMPS,ioos:station:USF.COMPS:ANC:1,2009-08-09T11:06:00Z,28.1930,-82.7890,-0.224,1111122 
COMPS,ioos:station:USF.COMPS:ANC:1,2009-08-09T11:12:00Z,28.1930,-82.7890,-0.238,1111122 
COMPS,ioos:station:USF.COMPS:ANC:1,2009-08-09T11:18:00Z,28.1930,-82.7890,-0.25,1111122 
COMPS,ioos:station:USF.COMPS:ANC:1,2009-08-09T11:24:00Z,28.1930,-82.7890,-0.258,1111122 
COMPS,ioos:station:USF.COMPS:ANC:1,2009-08-09T11:30:00Z,28.1930,-82.7890,-0.264,1111122 
COMPS,ioos:station:USF.COMPS:ANC:1,2009-08-09T11:36:00Z,28.1930,-82.7890,-0.272,1111122 
COMPS,ioos:station:USF.COMPS:ANC:1,2009-08-09T11:42:00Z,28.1930,-82.7890,-0.282,1111122 
COMPS,ioos:station:USF.COMPS:ANC:1,2009-08-09T11:48:00Z,28.1930,-82.7890,-0.29,1111122 
COMPS,ioos:station:USF.COMPS:ANC:1,2009-08-09T11:54:00Z,28.1930,-82.7890,-0.296,1111122 
COMPS,ioos:station:USF.COMPS:ANC:1,2009-08-09T12:00:00Z,28.1930,-82.7890,-0.302,1111122 
COMPS,ioos:station:USF.COMPS:ANC:1,2009-08-09T12:06:00Z,28.1930,-82.7890,-0.304,1111122 
COMPS,ioos:station:USF.COMPS:ANC:1,2009-08-09T12:12:00Z,28.1930,-82.7890,-0.304,1111122 
COMPS,ioos:station:USF.COMPS:ANC:1,2009-08-09T12:18:00Z,28.1930,-82.7890,-0.307,1111122 
COMPS,ioos:station:USF.COMPS:ANC:1,2009-08-09T12:24:00Z,28.1930,-82.7890,-0.31,1111122 
COMPS,ioos:station:USF.COMPS:ANC:1,2009-08-09T12:30:00Z,28.1930,-82.7890,-0.311,1111122 
COMPS,ioos:station:USF.COMPS:ANC:1,2009-08-09T12:36:00Z,28.1930,-82.7890,-0.311,1111122 
COMPS,ioos:station:USF.COMPS:ANC:1,2009-08-09T12:42:00Z,28.1930,-82.7890,-0.311,1111122 
COMPS,ioos:station:USF.COMPS:ANC:1,2009-08-09T12:48:00Z,28.1930,-82.7890,-0.312,1111122 
COMPS,ioos:station:USF.COMPS:ANC:1,2009-08-09T12:54:00Z,28.1930,-82.7890,-0.311,1111122 
COMPS,ioos:station:USF.COMPS:ANC:1,2009-08-09T13:00:00Z,28.1930,-82.7890,-0.304,1111122 
COMPS,ioos:station:USF.COMPS:ANC:1,2009-08-09T13:06:00Z,28.1930,-82.7890,-0.296,1111122 
COMPS,ioos:station:USF.COMPS:ANC:1,2009-08-09T13:12:00Z,28.1930,-82.7890,-0.287,1111122 
COMPS,ioos:station:USF.COMPS:ANC:1,2009-08-09T13:18:00Z,28.1930,-82.7890,-0.275,1111122 
COMPS,ioos:station:USF.COMPS:ANC:1,2009-08-09T13:24:00Z,28.1930,-82.7890,-0.266,1111122 
COMPS,ioos:station:USF.COMPS:ANC:1,2009-08-09T13:30:00Z,28.1930,-82.7890,-0.259,1111122 
COMPS,ioos:station:USF.COMPS:ANC:1,2009-08-09T13:36:00Z,28.1930,-82.7890,-0.25,1111122 
COMPS,ioos:station:USF.COMPS:ANC:1,2009-08-09T13:42:00Z,28.1930,-82.7890,-0.234,1111122 
COMPS,ioos:station:USF.COMPS:ANC:1,2009-08-09T13:48:00Z,28.1930,-82.7890,-0.217,1111122 
COMPS,ioos:station:USF.COMPS:ANC:1,2009-08-09T13:54:00Z,28.1930,-82.7890,-0.203,1111122 
COMPS,ioos:station:USF.COMPS:ANC:1,2009-08-09T14:00:00Z,28.1930,-82.7890,-0.187,1111122 
COMPS,ioos:station:USF.COMPS:ANC:1,2009-08-09T14:06:00Z,28.1930,-82.7890,-0.171,1111122 
COMPS,ioos:station:USF.COMPS:ANC:1,2009-08-09T14:12:00Z,28.1930,-82.7890,-0.154,1111122 
COMPS,ioos:station:USF.COMPS:ANC:1,2009-08-09T14:18:00Z,28.1930,-82.7890,-0.133,1111122 
COMPS,ioos:station:USF.COMPS:ANC:1,2009-08-09T14:24:00Z,28.1930,-82.7890,-0.118,1111122 
COMPS,ioos:station:USF.COMPS:ANC:1,2009-08-09T14:30:00Z,28.1930,-82.7890,-0.105,1111122 
COMPS,ioos:station:USF.COMPS:ANC:1,2009-08-09T14:36:00Z,28.1930,-82.7890,-0.093,1111122 
COMPS,ioos:station:USF.COMPS:ANC:1,2009-08-09T14:42:00Z,28.1930,-82.7890,-0.077,1111122 
COMPS,ioos:station:USF.COMPS:ANC:1,2009-08-09T14:48:00Z,28.1930,-82.7890,-0.059,1111122 
COMPS,ioos:station:USF.COMPS:ANC:1,2009-08-09T14:54:00Z,28.1930,-82.7890,-0.041,1111122 
COMPS,ioos:station:USF.COMPS:ANC:1,2009-08-09T15:00:00Z,28.1930,-82.7890,-0.027,1111122 
COMPS,ioos:station:USF.COMPS:ANC:1,2009-08-09T15:06:00Z,28.1930,-82.7890,-0.014,1111122 
COMPS,ioos:station:USF.COMPS:ANC:1,2009-08-09T15:12:00Z,28.1930,-82.7890,0.002,1111122 
COMPS,ioos:station:USF.COMPS:ANC:1,2009-08-09T15:18:00Z,28.1930,-82.7890,0.026,1111122 
COMPS,ioos:station:USF.COMPS:ANC:1,2009-08-09T15:24:00Z,28.1930,-82.7890,0.047,1111122 
COMPS,ioos:station:USF.COMPS:ANC:1,2009-08-09T15:30:00Z,28.1930,-82.7890,0.059,1111122 
COMPS,ioos:station:USF.COMPS:ANC:1,2009-08-09T15:36:00Z,28.1930,-82.7890,0.078,1111122 
COMPS,ioos:station:USF.COMPS:ANC:1,2009-08-09T15:42:00Z,28.1930,-82.7890,0.089,1111122 
COMPS,ioos:station:USF.COMPS:ANC:1,2009-08-09T15:48:00Z,28.1930,-82.7890,0.104,1111122 
COMPS,ioos:station:USF.COMPS:ANC:1,2009-08-09T15:54:00Z,28.1930,-82.7890,0.129,1111122 
COMPS,ioos:station:USF.COMPS:ANC:1,2009-08-09T16:00:00Z,28.1930,-82.7890,0.148,1111122 
COMPS,ioos:station:USF.COMPS:ANC:1,2009-08-09T16:06:00Z,28.1930,-82.7890,0.168,1111122 
COMPS,ioos:station:USF.COMPS:ANC:1,2009-08-09T16:12:00Z,28.1930,-82.7890,0.189,1111122 
COMPS,ioos:station:USF.COMPS:ANC:1,2009-08-09T16:18:00Z,28.1930,-82.7890,0.209,1111122 
COMPS,ioos:station:USF.COMPS:ANC:1,2009-08-09T16:24:00Z,28.1930,-82.7890,0.224,1111122 
COMPS,ioos:station:USF.COMPS:ANC:1,2009-08-09T16:30:00Z,28.1930,-82.7890,0.239,1111122 
COMPS,ioos:station:USF.COMPS:ANC:1,2009-08-09T16:36:00Z,28.1930,-82.7890,0.255,1111122 
COMPS,ioos:station:USF.COMPS:ANC:1,2009-08-09T16:42:00Z,28.1930,-82.7890,0.271,1111122 
COMPS,ioos:station:USF.COMPS:ANC:1,2009-08-09T16:48:00Z,28.1930,-82.7890,0.287,1111122 
COMPS,ioos:station:USF.COMPS:ANC:1,2009-08-09T16:54:00Z,28.1930,-82.7890,0.308,1111122 